Location: Unspecified
(0.0000°N, 0.0000°E)
Time: 15:55:05
(UTC+00:00)

HST - Visible Passes

Search period start: 01 August 2014 00:00
Search period end: 11 August 2014 00:00
Orbit: 547 x 552 km, 28.5° (Epoch: 31 July)

Date Brightness Start Highest point End Pass type
(mag) Time Alt. Az. Time Alt. Az. Time Alt. Az.
02 Aug 3.0 19:21:59 10° N 19:24:00 13° NNE 19:24:46 13° NE visible
03 Aug 2.6 19:14:15 10° NNW 19:17:14 19° NNE 19:18:24 17° NE visible
04 Aug 2.1 19:06:52 10° NNW 19:10:26 27° NNE 19:12:05 21° ENE visible
05 Aug 1.5 18:59:42 10° NW 19:03:37 40° NNE 19:05:48 22° E visible
05 Aug 4.1 20:41:20 10° W 20:41:23 10° W 20:41:23 10° W visible
06 Aug 1.0 18:52:40 10° NW 18:56:47 62° NNE 18:59:33 20° ESE visible
06 Aug 4.0 20:35:02 10° WSW 20:35:08 10° WSW 20:35:08 10° WSW visible
07 Aug 3.3 05:09:46 10° S 05:11:54 14° SSE 05:14:02 10° ESE visible
07 Aug 0.8 18:45:46 10° WNW 18:49:57 85° SSW 18:53:20 15° ESE visible
08 Aug 2.9 05:02:11 11° SSW 05:05:08 19° SSE 05:08:11 10° ESE visible
08 Aug 1.3 18:39:01 10° WNW 18:43:07 55° SSW 18:47:07 11° SE visible
09 Aug 2.3 04:55:57 17° SSW 04:58:20 28° SSE 05:01:56 10° E visible
09 Aug 2.0 18:32:25 10° W 18:36:16 36° SSW 18:40:08 10° SE visible
10 Aug 1.7 04:49:44 27° SSW 04:51:30 41° SSE 04:55:28 10° E visible
10 Aug 2.6 18:26:01 10° W 18:29:27 24° SSW 18:32:54 10° SSE visible
